Oklahoma City, OK

1:16 AM CDT on September 26, 2017 (GMT -0500)
Will Rogers World

Weather History for KOKC - June, 2013

Change the Weather History Date:

Wednesday, June 26, 2013

  Actual Average Record
Temperature  
Mean Temperature 83 °F 80 °F  
Max Temperature 93 °F 91 °F 104 °F (1918)
Min Temperature 72 °F 70 °F 50 °F (1958)
Degree Days  
Heating Degree Days 0 0  
Month to date heating degree days 0  
Since 1 June heating degree days 0  
Since 1 July heating degree days 3364  
Cooling Degree Days 18 16  
Month to date cooling degree days 332 325  
Year to date cooling degree days 505 575  
Since 1 June cooling degree days 325  
Growing Degree Days 32 (Base 50)    
Moisture  
Dew Point 69 °F    
Average Humidity 69    
Maximum Humidity 85    
Minimum Humidity 52    
Precipitation  
Precipitation 0.00 in 0.14 in 2.30 in (2016)
Month to date precipitation 4.81 4.41  
Year to date precipitation 31.85 18.16  
Sea Level Pressure  
Sea Level Pressure 29.82 in    
Wind  
Wind Speed 11 mph (SSE)    
Max Wind Speed 22 mph    
Max Gust Speed 28 mph    
Visibility 10 miles    
Events      
T = Trace of Precipitation, MM = Missing Value Source: NWS Daily Summary

Daily Weather History Graph

Daily Weather History Graph

Search for Another Location

Airport or City:

Trip Planner

Search our weather history database for the weather conditions in past years. The results will help you decide how hot, cold, wet, or windy it might be!

Date:

Astronomy

Jun. 26, 2013 Rise Set
Actual Time 6:17 AM CDT 8:49 PM CDT
Civil Twilight 5:47 AM CDT 9:19 PM CDT
Nautical Twilight 5:10 AM CDT 9:56 PM CDT
Astronomical Twilight 4:29 AM CDT 10:37 PM CDT
Moon 11:23 PM CDT 10:02 AM CDT
Length of Visible Light 15h 32m
Length of Day
14h 32m
Waning Gibbous, 85% of the Moon is Illuminated
Jun 26
Waning Gibbous
Jun 29
Last Quarter
Jul 8
New
Jul 15
First Quarter
Jul 22
Full

Hourly Weather History & Observations

Time (CDT) Temp. Heat Index Dew Point Humidity Pressure Visibility Wind Dir Wind Speed Gust Speed Precip Events Conditions
12:52 AM 80.1 °F 82.1 °F 66.0 °F 62% 29.76 in 10.0 mi South 11.5 mph - N/A   Mostly Cloudy
1:52 AM 80.1 °F 81.7 °F 64.0 °F 58% 29.74 in 10.0 mi South 10.4 mph - N/A   Mostly Cloudy
2:52 AM 75.9 °F - 64.0 °F 67% 29.75 in 10.0 mi SSE 6.9 mph - N/A   Mostly Cloudy
3:52 AM 73.9 °F - 64.0 °F 71% 29.75 in 10.0 mi SSE 8.1 mph - N/A   Mostly Cloudy
4:52 AM 75.0 °F - 63.0 °F 66% 29.77 in 10.0 mi South 9.2 mph - N/A   Scattered Clouds
5:52 AM 73.9 °F - 63.0 °F 68% 29.78 in 10.0 mi SSE 6.9 mph - N/A   Scattered Clouds
6:52 AM 73.9 °F - 64.0 °F 71% 29.79 in 9.0 mi South 9.2 mph - N/A   Scattered Clouds
7:52 AM 77.0 °F - 64.9 °F 66% 29.83 in 10.0 mi South 8.1 mph - N/A   Scattered Clouds
8:52 AM 80.1 °F 82.3 °F 66.9 °F 64% 29.84 in 10.0 mi South 11.5 mph - N/A   Partly Cloudy
9:52 AM 82.9 °F 85.8 °F 68.0 °F 60% 29.84 in 10.0 mi South 13.8 mph - N/A   Partly Cloudy
10:52 AM 86.0 °F 90.7 °F 70.0 °F 59% 29.85 in 10.0 mi South 16.1 mph 21.9 mph N/A   Partly Cloudy
11:52 AM 88.0 °F 92.9 °F 70.0 °F 55% 29.86 in 10.0 mi South 17.3 mph 21.9 mph N/A   Clear
12:52 PM 90.0 °F 96.9 °F 72.0 °F 55% 29.86 in 10.0 mi South 16.1 mph - N/A   Clear
1:52 PM 91.0 °F 99.3 °F 73.0 °F 55% 29.83 in 10.0 mi South 19.6 mph 24.2 mph N/A   Clear
2:52 PM 91.9 °F 100.7 °F 73.0 °F 54% 29.83 in 10.0 mi South 16.1 mph 23.0 mph N/A   Partly Cloudy
3:52 PM 91.9 °F 100.7 °F 73.0 °F 54% 29.83 in 10.0 mi South 11.5 mph - N/A   Clear
4:52 PM 93.0 °F 101.9 °F 73.0 °F 52% 29.83 in 10.0 mi SSE 11.5 mph - N/A   Clear
5:52 PM 91.9 °F 100.7 °F 73.0 °F 54% 29.82 in 10.0 mi SSE 11.5 mph - N/A   Clear
6:52 PM 91.0 °F 99.3 °F 73.0 °F 55% 29.82 in 10.0 mi South 9.2 mph - N/A   Clear
7:52 PM 89.1 °F 97.0 °F 73.0 °F 59% 29.83 in 10.0 mi South 6.9 mph - N/A   Clear
8:52 PM 84.0 °F 91.2 °F 73.9 °F 72% 29.85 in 10.0 mi SE 6.9 mph - N/A   Clear
9:52 PM 82.0 °F 87.4 °F 73.0 °F 74% 29.86 in 10.0 mi SE 6.9 mph - N/A   Clear
10:52 PM 82.0 °F 87.4 °F 73.0 °F 74% 29.88 in 10.0 mi SE 9.2 mph - N/A   Clear
11:52 PM 78.1 °F - 73.0 °F 84% 29.88 in 10.0 mi SSE 5.8 mph - N/A   Clear